x

St. Joseph, Mi (sjom4) Weather Station

8:19am - Sun 25th Jan 2015 All times are CST. -6 hours from GMT.

  • Wind
    7mph, 14mph gusts
  • Air Temp 33°f
  • Sea Pressure 1008.5mb
  • St. Joseph, Mi
  • St. Joseph, Mi

More Historic Weather Station data

Upgrade to MSW Pro to gain access to the past 30 days of data for over 8000 Wavebouys and Weather Stations around the globe.

Join Pro

Comparision Forecast

View Surf forecast
   
Sun 01/25 8:19am 7 14 mph 1008.5mb 33f
8:00am 3 9 mph 1008.8mb 33f
7:50am 5 9 mph 1008.5mb 33f
7:40am 6 11 mph 1008.8mb 33f
7:30am 6 13 mph 1008.5mb 33f
7:20am 6 13 mph 1008.5mb 33f
7:19am 6 15 mph 1007.5mb 33f
7:10am 8 13 mph 1008.1mb 33f
7:00am 5 15 mph 1007.5mb 34f
6:50am 5 9 mph 1008.1mb 35f
6:40am 2 8 mph 1008.1mb 35f
6:30am 2 6 mph 1007.5mb 35f
6:20am 1 5 mph 1008.1mb 35f
6:18am 2 9 mph 1007.5mb 35f
6:10am 2 8 mph 1008.1mb 35f
6:00am 2 6 mph 1007.8mb 35f
5:50am 3 9 mph 1007.8mb 35f
5:40am 2 6 mph 1007.5mb 35f
5:30am 2 6 mph 1007.5mb 35f
5:20am 3 7 mph 1006.8mb 35f
5:18am 3 8 mph 1006.8mb 35f
5:10am 2 7 mph 1006.8mb 35f
5:00am 5 8 mph 1006.8mb 35f
4:50am 2 5 mph 1006.8mb 35f
4:40am 1 2 mph 1006.8mb 35f
4:30am 1 2 mph 1006.8mb 34f
4:20am 1 2 mph 1006.8mb 34f
4:17am 1 5 mph 1006.8mb 34f
4:10am 1 3 mph 1006.8mb 34f
4:00am 2 5 mph 1006.8mb 34f
3:50am  -  2 mph 1006.8mb 35f
3:40am  -  mph 1006.4mb 35f
3:30am  -  1 mph 1006.4mb 35f
3:20am  -  mph 1006.1mb 35f
3:17am  -  1 mph 1006.4mb 35f
3:10am  -  mph 1006.4mb 35f
3:00am  -  mph 1006.4mb 35f
2:50am  -  mph 1006.4mb 35f
2:40am  -  1 mph 1006.1mb 35f
2:30am  -  1 mph 1006.4mb 35f
2:20am  -  1 mph 1006.8mb 35f
2:17am  -  2 mph 1006.1mb 35f
2:10am  -  mph 1006.4mb 35f
2:00am  -  1 mph 1006.4mb 35f
1:50am  -  mph 1006.8mb 35f
1:40am  -  1 mph 1006.4mb 35f
1:30am  -  2 mph 1006.4mb 35f
1:20am  -  1 mph 1006.1mb 35f
1:16am  -  1 mph 1005.4mb 35f
1:10am  -  mph 1005.8mb 35f
1:00am  -  mph 1006.1mb 35f
12:50am  -  mph 1005.4mb 35f
12:40am  -  mph 1005.8mb 35f
12:30am  -  1 mph 1005.1mb 35f
12:20am  -  1 mph 1005.8mb 35f
12:16am  -  2 mph 1005.8mb 35f
12:10am  -  1 mph 1005.8mb 35f
12:00am  -  1 mph 1005.8mb 35f
Sat 01/24 11:50pm  -  2 mph 1005.4mb 35f
11:40pm 1 2 mph 1005.8mb 35f
11:30pm  -  mph 1005.8mb 35f
11:20pm  -  mph 1006.4mb 35f
11:15pm  -  5 mph 1006.4mb 35f
11:10pm  -  1 mph 1005.4mb 35f
11:00pm  -  2 mph 1006.1mb 35f
10:50pm  -  2 mph 1005.8mb 35f
10:40pm  -  3 mph 1006.1mb 35f
10:30pm 2 5 mph 1006.1mb 35f
10:20pm 2 3 mph 1005.4mb 35f
10:15pm 2 7 mph 1005.8mb 35f
10:10pm 2 5 mph 1005.4mb 35f
10:00pm 3 5 mph 1006.1mb 35f
9:50pm 5
mph
1005.4mb 35f
9:40pm 3 6 mph 1005.4mb 35f
9:30pm 6 7 mph 1005.4mb 35f
9:20pm 5 6 mph 1005.4mb 35f
9:15pm 5 9 mph 1005.4mb 35f
9:10pm 5 6 mph 1006.1mb 35f
9:00pm 3 5 mph 1005.8mb 35f
8:50pm  -  9 mph 1006.1mb 35f
8:40pm  -  5 mph 1005.8mb 35f
8:30pm 3 7 mph 1006.1mb 35f
8:20pm 6 8 mph 1006.1mb 35f
8:14pm 5 10 mph 1006.1mb 35f
8:10pm 5 8 mph 1006.1mb 35f
8:00pm 5 8 mph 1006.1mb 35f
7:50pm 7 10 mph 1005.8mb 35f
7:40pm 6 10 mph 1005.4mb 35f
7:30pm 9 10 mph 1005.8mb 35f
7:20pm 6 9 mph 1005.4mb 35f
7:14pm 7 11 mph 1005.8mb 35f
7:10pm 8 10 mph 1005.1mb 35f
7:00pm 9 10 mph 1005.1mb 35f
6:50pm 8 10 mph 1005.4mb 36f
6:40pm 8 11 mph 1005.1mb 36f
6:30pm 8 11 mph 1005.1mb 35f
6:20pm 8 11 mph 1005.4mb 35f
6:13pm 8 13 mph 1005.1mb 36f
6:10pm 9 13 mph 1005.1mb 36f
6:00pm 10 13 mph 1005.1mb 36f
5:50pm 8 11 mph 1004.4mb 36f
5:40pm 8 11 mph 1004.4mb 36f
5:30pm 7 9 mph 1005.1mb 36f
5:20pm 7 9 mph 1004.4mb 36f
5:13pm 8 10 mph 1004.4mb 36f
5:10pm 8 9 mph 1004.4mb 36f
5:00pm 6 10 mph 1004.4mb 35f
4:50pm 8 10 mph 1004.7mb 35f
4:40pm 7 9 mph 1004.1mb 35f
4:30pm 7 10 mph 1004.1mb 36f
4:20pm 7 10 mph 1003.7mb 36f
4:13pm 7 10 mph 1003.7mb 35f
4:10pm 6 10 mph 1004.4mb 35f
4:00pm 8 9 mph 1004.1mb 35f
3:50pm 7 9 mph 1004.1mb 35f
3:40pm 7 9 mph 1004.1mb 35f
3:30pm 7 9 mph 1004.4mb 35f
3:20pm 8 10 mph 1003.7mb 35f
3:12pm 9 11 mph 1003.7mb 35f
3:10pm 9 11 mph 1004.4mb 35f
3:00pm 9 11 mph 1003.7mb 34f
2:50pm 9 11 mph 1004.4mb 34f
2:40pm 8 11 mph 1004.1mb 34f
2:30pm 8 10 mph 1004.1mb 34f
2:20pm 9 13 mph 1004.1mb 34f
2:12pm 10 14 mph 1003.7mb 34f
2:10pm 9 14 mph 1004.4mb 34f
2:00pm 9 13 mph 1004.1mb 34f
1:50pm 10 13 mph 1004.1mb 34f
1:40pm 8 13 mph 1004.1mb 34f
1:30pm 9 10 mph 1004.1mb 35f
1:20pm 8 10 mph 1004.1mb 35f
1:11pm 8 11 mph 1003.7mb 35f
1:10pm 8 11 mph 1004.7mb 35f
1:00pm 9 11 mph 1004.4mb 35f
12:50pm 10 11 mph 1004.4mb 35f
12:40pm 7 8 mph 1004.7mb 36f
12:30pm 7 10 mph 1004.4mb 36f
12:20pm 7 11 mph 1005.1mb 36f
12:10pm 7 10 mph 1004.7mb 36f
12:00pm 7 9 mph 1005.1mb 36f
11:50am 7 10 mph 1005.4mb 37f
11:40am 7 10 mph 1005.4mb 38f
11:30am 8 10 mph 1005.1mb 37f
11:20am 7 9 mph 1005.4mb 38f
11:11am 7 9 mph 1005.1mb 38f
11:10am 7 8 mph 1005.4mb 38f
11:00am 6 9 mph 1005.4mb 37f
10:50am 6 8 mph 1005.1mb 37f
10:40am 6 9 mph 1005.8mb 36f
10:30am 6 9 mph 1005.4mb 36f
10:20am 8 9 mph 1005.4mb 35f
10:10am 6 16 mph 1005.4mb 35f
10:00am 7 9 mph 1005.4mb 35f
9:50am 7 10 mph 1005.4mb 35f
9:40am 8 11 mph 1005.4mb 35f
9:30am 8 14 mph 1005.4mb 35f
9:20am 10 16 mph 1005.8mb 34f
9:10am 11 16 mph 1006.1mb 34f
9:00am 11 15 mph 1006.1mb 34f
8:50am 10 14 mph 1005.4mb 34f
8:40am 9 11 mph 1005.8mb 34f
8:30am 8 13 mph 1005.8mb 34f
8:20am 9 15 mph 1006.1mb 34f
8:10am 10 13 mph 1006.4mb 34f
8:09am 10 17 mph 1005.8mb 34f
8:00am 11 14 mph 1006.1mb 34f
7:50am 13 17 mph 1005.8mb 34f
7:40am 13 16 mph 1006.4mb 34f
7:30am 11 14 mph 1006.1mb 34f
7:20am 11 15 mph 1005.4mb 34f
7:10am 10 14 mph 1005.8mb 34f
7:09am 11 15 mph 1005.8mb 33f
7:00am 10 15 mph 1006.1mb 33f
6:50am 11 15 mph 1006.1mb 33f
6:40am 10 15 mph 1005.8mb 33f
6:30am 9 13 mph 1005.4mb 33f
6:20am 10 14 mph 1005.8mb 33f
6:10am 11 14 mph 1005.8mb 33f
6:09am 11 17 mph 1005.4mb 33f
6:00am 10 13 mph 1006.1mb 33f
5:50am 10 16 mph 1006.1mb 33f
5:40am 11 17 mph 1006.1mb 33f
5:30am 13 17 mph 1006.4mb 33f
5:20am 14 16 mph 1006.1mb 33f
5:10am 13 17 mph 1006.4mb 33f
5:08am 14 18 mph 1005.8mb 33f
5:00am 13 16 mph 1005.8mb 33f
4:50am 13 16 mph 1006.1mb 33f
4:40am 13 16 mph 1005.8mb 33f
4:30am 14 18 mph 1006.1mb 33f
4:20am 15 18 mph 1005.8mb 33f
4:10am 16 22 mph 1006.8mb 33f
4:08am 15 22 mph 1006.8mb 33f
4:00am 16 21 mph 1006.1mb 33f
3:50am 16 21 mph 1006.8mb 33f
3:40am 16 21 mph 1006.1mb 33f
3:30am 16 21 mph 1006.4mb 33f
3:20am 16 21 mph 1006.8mb 33f
3:10am 13 20 mph 1006.8mb 33f
3:07am 14 21 mph 1006.8mb 33f
3:00am 14 20 mph 1006.8mb 33f
2:50am 14 21 mph 1007.1mb 33f
2:40am 17 21 mph 1007.5mb 33f
2:30am 17 21 mph 1007.8mb 32f
2:20am 16 18 mph 1008.1mb 31f
2:10am 17 21 mph 1007.8mb 31f
2:07am 17 21 mph 1008.1mb 31f
2:00am 17 20 mph 1008.5mb 31f
1:50am 17 21 mph 1008.5mb 31f
1:40am 17 21 mph 1007.8mb 31f
1:30am 18 21 mph 1008.5mb 31f
1:20am 14 21 mph 1008.1mb 31f
1:10am 16 21 mph 1008.5mb 31f
1:07am 15 21 mph 1008.8mb 30f
1:00am 11 21 mph 1009.1mb 30f
12:50am 15 20 mph 1009.5mb 30f
12:40am 11 17 mph 1009.5mb 30f
12:30am 11 18 mph 1009.1mb 30f
12:20am 14 21 mph 1009.5mb 31f
12:10am 16 22 mph 1010.2mb 31f
12:06am 16 22 mph 1009.5mb 31f
12:00am 17 21 mph 1010.2mb 31f
Fri 01/23 11:50pm 17 20 mph 1010.5mb 31f
11:40pm 16 20 mph 1010.8mb 31f
11:30pm 17 21 mph 1010.5mb 31f
11:20pm 17 20 mph 1010.5mb 31f
11:10pm 16 21 mph 1010.8mb 31f
11:06pm 16 21 mph 1011.5mb 30f
11:00pm 15 18 mph 1011.2mb 30f
10:50pm 15 18 mph 1011.2mb 30f
10:40pm 15 21 mph 1011.9mb 30f
10:30pm 15 20 mph 1011.5mb 30f
10:20pm 15 20 mph 1012.5mb 30f
10:10pm 16 20 mph 1012.2mb 30f
10:05pm 16 23 mph 1011.9mb 30f
10:00pm 16 21 mph 1012.5mb 30f
9:50pm 17 22 mph 1012.5mb 30f
9:40pm 17 22 mph 1012.5mb 30f
9:30pm 17 22 mph 1012.5mb 30f
9:20pm 17 23 mph 1012.5mb 30f
9:10pm 18 23 mph 1011.9mb 30f
9:05pm 18 24 mph 1012.9mb 30f
9:00pm 17 24 mph 1011.9mb 30f
8:50pm 17 24 mph 1012.9mb 30f
8:40pm 21 23 mph 1012.2mb 30f
8:30pm 18 24 mph 1012.9mb 30f
8:20pm 20 24 mph 1012.9mb 30f
8:10pm 17 25 mph 1013.2mb 30f
8:05pm 21 25 mph 1013.9mb 30f
8:00pm 21 25 mph 1013.2mb 30f
7:50pm 17 23 mph 1014.2mb 30f
7:40pm 17 22 mph 1014.6mb 30f
7:30pm 17 21 mph 1014.2mb 30f
7:20pm 15 18 mph 1014.9mb 30f
7:10pm 13 21 mph 1014.2mb 30f
7:04pm 15 22 mph 1014.2mb 30f
7:00pm 15 21 mph 1013.9mb 30f
6:50pm 16 21 mph 1014.2mb 30f
6:40pm 17 22 mph 1014.9mb 30f
6:30pm 9 16 mph 1014.6mb 30f
6:20pm 11 18 mph 1015.2mb 30f
6:10pm 13 17 mph 1014.6mb 30f
6:04pm 7 23 mph 1014.9mb 30f
6:00pm 8 14 mph 1014.9mb 30f
5:50pm 11 18 mph 1015.6mb 31f
5:40pm 13 18 mph 1015.6mb 31f
5:30pm 17 20 mph 1015.6mb 31f
5:20pm 16 22 mph 1015.2mb 31f
5:10pm 17 23 mph 1015.6mb 30f
5:03pm 17 23 mph 1015.2mb 30f
5:00pm 17 22 mph 1015.6mb 30f
4:50pm 15 20 mph 1015.2mb 31f
4:40pm 13 21 mph 1014.9mb 31f
4:30pm 16 23 mph 1014.9mb 31f
4:20pm 16 22 mph 1015.9mb 31f
4:10pm 16 20 mph 1015.6mb 31f
4:03pm 16 21 mph 1016.3mb 31f
4:00pm 16 21 mph 1016.6mb 31f
3:50pm 16 21 mph 1016.3mb 31f
3:40pm 15 21 mph 1016.6mb 31f
3:30pm 15 21 mph 1017.6mb 31f
3:20pm 15 20 mph 1017.3mb 31f
3:10pm 16 21 mph 1017.3mb 31f
3:02pm 16 22 mph 1017.9mb 31f
3:00pm 17 22 mph 1017.9mb 31f
2:50pm 16 20 mph 1017.6mb 31f
2:40pm 14 18 mph 1017.6mb 31f
2:30pm 14 20 mph 1017.6mb 31f
2:20pm 15 21 mph 1017.6mb 31f
2:10pm 17 21 mph 1017.6mb 31f
2:02pm 16 22 mph 1017.6mb 31f
2:00pm 15 20 mph 1017.6mb 31f
1:50pm 15 20 mph 1018.6mb 31f
1:40pm 16 20 mph 1018.3mb 31f
1:30pm 15 21 mph 1018.6mb 31f
1:20pm 16 22 mph 1019mb 31f
1:10pm 16 20 mph 1019mb 30f
1:02pm 16 24 mph 1019.3mb 30f
1:00pm 17 22 mph 1018.3mb 30f
12:50pm 17 24 mph 1019mb 31f
12:40pm 18 23 mph 1019.6mb 30f
12:30pm 17 23 mph 1019mb 30f
12:20pm 16 22 mph 1020mb 30f
12:10pm 15 20 mph 1019.6mb 30f
12:01pm 15 20 mph 1019.3mb 30f
12:00pm 15 20 mph 1020mb 30f
11:50am 16 20 mph 1020.3mb 30f
11:40am 15 20 mph 1020mb 30f
11:30am 15 20 mph 1020.3mb 30f
11:20am 14 20 mph 1021mb 30f
11:10am 15 20 mph 1020.7mb 30f
11:00am 16 21 mph 1021.3mb 30f
10:50am 16 18 mph 1021.7mb 30f
10:40am 15 20 mph 1022mb 30f
10:30am 11 21 mph 1022.4mb 30f
10:20am 15 18 mph 1022.4mb 30f
10:10am 15 17 mph 1022mb 30f
10:00am 14 20 mph 1022.4mb 30f
9:50am 16 20 mph 1022mb 30f
9:40am 16 23 mph 1022.7mb 30f
9:30am 15 22 mph 1023mb 30f
9:20am 17 23 mph 1023mb 30f
9:10am 14 21 mph 1023mb 30f
9:00am 16 21 mph 1023mb 30f
8:50am 14 23 mph 1023mb 30f
8:40am 16 24 mph 1023.7mb 30f
8:30am 14 23 mph 1023.4mb 30f
8:20am 16 20 mph 1023.4mb 30f
8:10am 15 22 mph 1023.7mb 30f
8:00am 16 23 mph 1023.4mb 30f
7:50am 16 21 mph 1023.7mb 30f
7:40am 16 22 mph 1023.7mb 30f
7:30am 16 22 mph 1024.4mb 30f
7:20am 16 22 mph 1024.7mb 30f
7:10am 16 24 mph 1024.7mb 30f
7:00am 16 22 mph 1024.7mb 30f
6:59am 15 22 mph 1024mb 30f
6:50am 17 21 mph 1024mb 30f
6:40am 16 21 mph 1024mb 30f
6:30am 16 21 mph 1024.7mb 30f
6:20am 17 22 mph 1024.7mb 30f
6:10am 14 18 mph 1025.1mb 30f
6:00am 16 20 mph 1025.4mb 31f
5:59am 14 21 mph 1024.4mb 31f
5:50am 11 17 mph 1025.1mb 31f
5:40am 16 21 mph 1024.4mb 30f
5:30am 15 18 mph 1024.4mb 30f
5:20am 16 21 mph 1025.1mb 30f
5:10am 16 21 mph 1024.7mb 30f
5:00am 16 22 mph 1024.7mb 30f
4:58am 17 22 mph 1025.1mb 30f
4:50am 16 21 mph 1024.7mb 30f
4:40am 16 20 mph 1025.1mb 31f
4:30am 16 22 mph 1025.4mb 30f
4:20am 17 21 mph 1025.1mb 30f
4:10am 15 22 mph 1025.1mb 30f
4:00am 15 21 mph 1026.1mb 30f
3:58am 16 22 mph 1025.4mb 31f
3:50am 17 22 mph 1025.4mb 31f
3:40am 16 22 mph 1025.7mb 31f
3:30am 16 21 mph 1025.7mb 31f
3:20am 15 21 mph 1026.1mb 31f
3:10am 18 22 mph 1026.8mb 31f
3:00am 17 23 mph 1026.4mb 31f
2:58am 16 23 mph 1026.4mb 31f
2:50am 16 20 mph 1026.8mb 31f
2:40am 14 18 mph 1026.1mb 31f
2:30am 14 20 mph 1027.1mb 31f
2:20am 15 21 mph 1027.1mb 31f
2:10am 15 21 mph 1027.4mb 31f
2:00am 17 20 mph 1027.4mb 31f
1:57am 16 25 mph 1027.4mb 31f
1:50am 16 22 mph 1027.4mb 31f
1:40am 17 25 mph 1027.1mb 31f
1:30am 16 22 mph 1027.4mb 31f
1:20am 15 21 mph 1027.4mb 31f
1:10am 15 18 mph 1027.4mb 31f
1:00am 16 21 mph 1027.8mb 31f
12:57am 17 21 mph 1027.1mb 31f
12:50am 16 21 mph 1028.1mb 31f
12:40am 15 20 mph 1027.8mb 31f
12:30am 14 20 mph 1027.1mb 31f
12:20am 14 18 mph 1027.8mb 31f
12:10am 16 18 mph 1027.4mb 31f
12:00am 15 17 mph 1028.1mb 31f
Thu 01/22 11:56pm 15 20 mph 1028.1mb 31f
11:50pm 14 18 mph 1028.8mb 31f
11:40pm 15 17 mph 1028.8mb 32f
11:30pm 14 18 mph 1028.8mb 32f
11:20pm 15 20 mph 1028.8mb 32f
11:10pm 10 14 mph 1028.1mb 31f
11:00pm 8 13 mph 1028.4mb 31f
10:56pm 8 15 mph 1029.1mb 31f
10:50pm 8 13 mph 1028.1mb 31f
10:40pm 8 11 mph 1028.4mb 31f
10:30pm 11 14 mph 1029.1mb 32f
10:20pm 11 15 mph 1029.5mb 32f
10:10pm 11 13 mph 1029.5mb 32f
10:00pm 11 13 mph 1028.8mb 32f
9:56pm 10 16 mph 1029.5mb 32f
9:50pm 10 16 mph 1029.1mb 32f
9:40pm 10 15 mph 1029.5mb 32f
9:30pm 10 14 mph 1029.1mb 32f
9:20pm 9 11 mph 1029.5mb 32f
9:10pm 8 13 mph 1029.5mb 32f
9:00pm 8 13 mph 1029.1mb 32f
8:55pm 8 13 mph 1029.1mb 32f
8:50pm 8 13 mph 1029.5mb 32f
8:40pm 9 13 mph 1030.1mb 32f
8:30pm 10 13 mph 1029.5mb 32f
8:20pm 8 10 mph 1029.5mb 32f
8:10pm 9 10 mph 1029.8mb 32f
8:00pm 9 13 mph 1030.1mb 32f
7:55pm 8 10 mph 1029.8mb 32f
7:50pm 8 10 mph 1029.8mb 32f
7:40pm 8 10 mph 1029.8mb 32f
7:30pm 7 10 mph 1030.1mb 32f
7:20pm 6 8 mph 1030.1mb 32f
7:10pm 7
mph
1030.5mb 31f
7:00pm 6 7 mph 1030.8mb 31f
6:54pm 6 11 mph 1030.8mb 31f
6:50pm 6 11 mph 1030.8mb 31f
6:40pm 8 10 mph 1030.5mb 31f
6:30pm 6 8 mph 1030.5mb 31f
6:20pm 6 7 mph 1029.8mb 31f
6:10pm 6 11 mph 1030.1mb 31f
6:00pm 8 9 mph 1030.1mb 31f
5:54pm 7 13 mph 1029.5mb 31f
5:50pm 3 6 mph 1029.5mb 31f
5:40pm 6 8 mph 1030.1mb 31f
5:30pm 7 10 mph 1029.8mb 31f
5:20pm 5 9 mph 1030.1mb 31f
5:10pm 7 13 mph 1030.1mb 31f
5:00pm 7 10 mph 1030.1mb 31f
4:54pm 7 10 mph 1030.1mb 31f
4:50pm 7 9 mph 1030.1mb 31f
4:40pm 6 10 mph 1030.1mb 31f
4:30pm 8 10 mph 1030.1mb 31f
4:20pm 3 7 mph 1030.1mb 31f
4:10pm 7 9 mph 1030.5mb 32f
4:00pm 5 8 mph 1030.1mb 32f
3:53pm 6 14 mph 1030.8mb 32f
3:50pm 9 11 mph 1029.8mb 32f
3:40pm 10 13 mph 1030.1mb 32f
3:30pm 10 13 mph 1030.5mb 32f
3:20pm 6 9 mph 1030.1mb 32f
3:10pm 7 11 mph 1030.1mb 32f
3:00pm 10 14 mph 1030.1mb 32f
2:53pm 8 14 mph 1030.8mb 32f
2:50pm 10 14 mph 1030.5mb 32f
2:40pm 8 11 mph 1029.8mb 32f
2:30pm 8 9 mph 1030.1mb 32f
2:20pm 7 8 mph 1030.5mb 32f
2:10pm 6 8 mph 1030.8mb 32f
2:00pm 7 10 mph 1030.5mb 32f
1:52pm 6 13 mph 1029.8mb 32f
1:50pm 6 8 mph 1029.8mb 32f
1:40pm 7 9 mph 1030.5mb 32f
1:30pm 9 13 mph 1029.8mb 32f
1:20pm 7 11 mph 1029.8mb 32f
1:10pm 7 9 mph 1029.5mb 32f
1:00pm 7 8 mph 1029.5mb 32f
12:52pm 6 8 mph 1030.1mb 32f
12:50pm 7 8 mph 1029.5mb 32f
12:40pm 6 7 mph 1029.5mb 33f
12:30pm 5 6 mph 1029.5mb 33f
12:20pm 6 8 mph 1030.1mb 32f
12:10pm 3 6 mph 1030.1mb 33f
12:00pm 2 3 mph 1030.1mb 33f
11:52am 2 7 mph 1030.1mb 33f
11:50am 2 3 mph 1030.1mb 33f
11:40am 2 6 mph 1030.5mb 32f
11:30am 3 6 mph 1029.8mb 32f
11:20am 5 7 mph 1030.1mb 32f
11:10am 5 7 mph 1030.1mb 32f
11:00am 3 6 mph 1030.8mb 32f
10:51am 2 10 mph 1030.5mb 32f
10:50am 2 5 mph 1030.8mb 32f
10:40am 5 9 mph 1030.8mb 32f
10:30am 5 10 mph 1030.8mb 32f
10:20am 8 9 mph 1031.2mb 32f
10:10am 3 7 mph 1030.1mb 32f
10:00am 6
mph
1030.8mb 32f
9:51am 2 9 mph 1030.5mb 32f
9:50am 2 5 mph 1030.5mb 32f
9:40am 2 5 mph 1030.5mb 32f
9:30am 5 9 mph 1030.5mb 31f
9:20am 6 8 mph 1030.1mb 31f
9:10am 5 9 mph 1030.1mb 31f
9:00am 8 9 mph 1030.1mb 31f
8:50am 7 13 mph 1030.5mb 31f
8:40am 6 10 mph 1029.5mb 31f
8:30am 9 11 mph 1029.5mb 31f
8:20am 9 11 mph 1029.1mb 31f
8:10am 10 13 mph 1029.1mb 31f
8:00am 8 10 mph 1029.5mb 31f
7:50am 8 11 mph 1029.8mb 31f
7:40am 7 10 mph 1029.8mb 31f
7:30am 8 11 mph 1028.8mb 31f
7:20am 6 9 mph 1029.1mb 31f
7:10am 9 11 mph 1029.1mb 31f
7:00am 8 11 mph 1029.1mb 31f
6:50am 9 11 mph 1028.4mb 31f
6:49am 9 16 mph 1029.1mb 31f
6:40am 9 13 mph 1028.8mb 31f
6:30am 7 11 mph 1028.4mb 31f
6:20am 8 15 mph 1027.8mb 31f
6:10am 13 15 mph 1028.1mb 31f
6:00am 13 16 mph 1027.8mb 31f
5:50am 14 16 mph 1027.8mb 31f
5:49am 13 18 mph 1026.8mb 31f
5:40am 10 16 mph 1027.4mb 31f
5:30am 9 16 mph 1027.1mb 31f
5:20am 13 17 mph 1026.4mb 31f
5:10am 10 16 mph 1026.8mb 31f
5:00am 14 18 mph 1026.1mb 31f
4:50am 10 17 mph 1026.1mb 31f
4:49am 13 18 mph 1027.1mb 31f
4:40am 14 17 mph 1026.4mb 31f
4:30am 11 18 mph 1026.4mb 31f
4:20am 14 17 mph 1026.1mb 31f
4:10am 14 18 mph 1026.4mb 31f
4:00am 14 17 mph 1025.7mb 31f
3:50am 13 18 mph 1026.4mb 31f
3:48am 15 18 mph 1025.7mb 32f
3:40am 9 14 mph 1026.1mb 32f
3:30am 8 11 mph 1026.1mb 32f
3:20am 7 13 mph 1025.7mb 32f
3:10am 8 15 mph 1025.1mb 32f
3:00am 9 16 mph 1025.4mb 32f
2:50am 13 16 mph 1025.4mb 32f
2:48am 11 15 mph 1025.7mb 32f
2:40am 9 15 mph 1025.7mb 32f
2:30am 11 14 mph 1025.4mb 32f
2:20am 10 14 mph 1025.7mb 32f
2:10am 11 15 mph 1025.4mb 32f
2:00am 9 14 mph 1025.1mb 32f
1:50am 9 13 mph 1025.4mb 32f
1:47am 8 14 mph 1025.4mb 32f
1:40am 8 11 mph 1025.4mb 32f
1:30am 10 11 mph 1024.4mb 32f
1:20am 9 14 mph 1025.1mb 32f
1:10am 8 13 mph 1025.1mb 32f
1:00am 8 13 mph 1025.1mb 32f
12:50am 10 15 mph 1024.4mb 32f
12:47am 11 15 mph 1024.7mb 32f
12:40am 10 13 mph 1024.7mb 32f
12:30am 10 14 mph 1024.7mb 32f
12:20am 10 15 mph 1024.4mb 32f
12:10am 13 15 mph 1024.7mb 32f
12:00am 9 14 mph 1024.4mb 32f
Wed 01/21 11:50pm 9 14 mph 1024mb 32f
11:47pm 9 14 mph 1023.7mb 32f
11:40pm 10 13 mph 1023.7mb 31f
11:30pm 8 10 mph 1024.4mb 32f
11:20pm 8 11 mph 1024mb 31f
11:10pm 8 14 mph 1023.7mb 31f
11:00pm 8 9 mph 1024.4mb 31f
10:50pm 5 10 mph 1023.7mb 31f
10:46pm 8 17 mph 1024mb 31f
10:40pm 8 13 mph 1024.4mb 31f
10:30pm 11 17 mph 1024.4mb 32f
10:20pm 8 11 mph 1024mb 31f
10:10pm 9 14 mph 1024mb 31f
10:00pm 10 15 mph 1023.7mb 31f
9:50pm 8 14 mph 1023.7mb 31f
9:46pm 9 15 mph 1023.7mb 31f
9:40pm 8 13 mph 1022.7mb 31f
9:30pm 8 13 mph 1022.7mb 31f
9:20pm 11 15 mph 1023mb 31f
9:10pm 10 15 mph 1022.7mb 31f
9:00pm 10 15 mph 1023.4mb 31f
8:50pm 13 15 mph 1023mb 31f
8:45pm 13 16 mph 1022.7mb 31f
8:40pm 11 15 mph 1022.7mb 31f
8:30pm 11 15 mph 1023mb 31f
8:20pm 13 16 mph 1022.4mb 31f
8:10pm 11 15 mph 1022mb 31f
8:00pm 10 15 mph 1022mb 32f
7:50pm 13 17 mph 1022.7mb 32f
7:45pm 14 17 mph 1021.7mb 32f
7:40pm 13 17 mph 1022mb 32f
7:30pm 14 17 mph 1021.3mb 32f
7:20pm 13 16 mph 1022.4mb 32f
7:10pm 13 15 mph 1021.7mb 32f
7:00pm 14 16 mph 1022mb 32f
6:50pm 14 16 mph 1022mb 32f
6:45pm 11 16 mph 1021.7mb 31f
6:40pm 11 15 mph 1021.7mb 31f
6:30pm 14 16 mph 1021.7mb 32f
6:20pm 13 16 mph 1021.7mb 31f
6:10pm 11 15 mph 1021mb 32f
6:00pm 11 14 mph 1020.7mb 32f
5:50pm 13 15 mph 1021.3mb 32f
5:44pm 11 15 mph 1021mb 32f
5:40pm 10 14 mph 1021mb 32f
5:30pm 11 15 mph 1021mb 31f
5:20pm 10 14 mph 1021mb 31f
5:10pm 10 13 mph 1020.3mb 31f
5:00pm 9 13 mph 1020.3mb 31f
4:50pm 9 11 mph 1020.3mb 31f
4:44pm 8 15 mph 1020.3mb 31f
4:40pm 8 13 mph 1020.3mb 31f
4:30pm 8 13 mph 1019.3mb 31f
4:20pm 8 11 mph 1019.6mb 31f
4:10pm 7 11 mph 1019.3mb 31f
4:00pm 8 13 mph 1019.3mb 31f
3:50pm 11 15 mph 1018.6mb 31f
3:43pm 11 14 mph 1018.6mb 31f
3:40pm 11 14 mph 1018.6mb 31f
3:30pm 8 14 mph 1018.3mb 31f
3:20pm 10 14 mph 1018.6mb 32f
3:10pm 10 14 mph 1017.9mb 32f